(154269) = 2002 SM

Discovered at Palomar on 2002-09-16 by NEAT.

Orbit

Orbit type: Apollo
Potentially Hazardous Asteroid

Note: WebGL enabled browser required.

epoch2023-09-13.0
epoch JD2460200.5
perihelion date2022-08-28.34424
perihelion JD2459819.84424
argument of perihelion (°)217.30202
ascending node (°)10.87604
inclination (°)14.41719
eccentricity0.4860033
perihelion distance (AU)0.9626469
Tisserand w.r.t. Jupiter3.8
ΔV w.r.t. Earth (km/sec)6.9
semimajor axis (AU)1.8728660
mean anomaly (°)146.37812
mean daily motion (°/day)0.38454200
aphelion distance (AU)2.783
period (years)2.56
P-vector [x]-0.67041882
P-vector [y]-0.60651247
P-vector [z]-0.42741225
Q-vector [x]0.74049416
Q-vector [y]-0.51044280
Q-vector [z]-0.43716879
absolute magnitude17.87
phase slope0.15
uncertainty0
referenceMPEC 2023-X62
observations used290
oppositions13
arc length (days)7752
first opposition used2002
last opposition used2023
residual rms (arc-secs)0.83
perturbers coarse indicatorM-v
perturbers precise indicator003Ek
first observation date used2002-09-13.0
last observation date used2023-12-04.0
computer nameMPCLINUX
JD of orbit computation2456612.600766
perihelion JD uncertainty (days)7.9567E-05
argument of perihelion uncertainty (°)3.2776E-05
ascending node uncertainty (°)3.3224E-05
inclination uncertainty (°)1.0666E-05
eccentricity uncertainty 1.0141E-07
perihelion distance uncertainty (AU)2.0239E-07
Minimum Orbit Intersection Distances (in AU)
for orbit epoch: 2460200.5, reference: E2023-X62
Mercury0.51709
Venus0.27513
Earth0.02326
Mars0.23899
Jupiter2.27548
Saturn6.4449
Uranus16.6902
Neptune27.1163

Observations

308 total observations over interval: 2002 09 13.56206 – 2023 12 04.253976
These data are available for download (format description).

Date (UT) J2000 RA J2000 Dec Magn Location Ref
2002 09 13.56206 00 25 31.28 -04 27 12.0 19.6 R 608 – Haleakala-AMOS MPS 110825
2002 09 13.57304 00 25 30.13 -04 27 14.6 19.3 R 608 – Haleakala-AMOS MPS 110825
2002 09 13.58399 00 25 28.94 -04 27 15.5 19.3 R 608 – Haleakala-AMOS MPS 110825
2002 09 16.49105 00 20 27.95 -04 35 00.2 20.2   644 – Palomar Mountain/NEAT MPS 63646
2002 09 16.50163 00 20 26.82 -04 35 02.3 20.1   644 – Palomar Mountain/NEAT MPS 63646
2002 09 16.51195 00 20 25.72 -04 35 03.1 20.4   644 – Palomar Mountain/NEAT MPS 63646
2002 09 17.23785 00 19 11.15 -04 36 55.2   673 – Table Mountain Observatory, Wrightwood MPS 63646
2002 09 17.24306 00 19 10.71 -04 36 56.1   673 – Table Mountain Observatory, Wrightwood MPS 63646
2002 09 17.24757 00 19 10.10 -04 36 56.4   673 – Table Mountain Observatory, Wrightwood MPS 63646
2002 09 17.46324 00 18 47.20 -04 37 28.5 19.5   644 – Palomar Mountain/NEAT MPS 63646
2002 09 17.47381 00 18 46.06 -04 37 30.2 19.6   644 – Palomar Mountain/NEAT MPS 63646
2002 09 17.48445 00 18 44.93 -04 37 31.4 19.9   644 – Palomar Mountain/NEAT MPS 63646
2002 09 18.03913 00 17 47.79 -04 38 56.0 18.8 R 599 – Campo Imperatore-CINEOS MPS 63646
2002 09 18.04462 00 17 47.19 -04 38 56.6 18.8 R 599 – Campo Imperatore-CINEOS MPS 63646
2002 09 18.27438 00 17 23.90 -04 39 28.3 19.3 R 711 – McDonald Observatory, Fort Davis MPS 63646
2002 09 18.28455 00 17 22.52 -04 39 29.7   711 – McDonald Observatory, Fort Davis MPS 63646
2002 09 18.29533 00 17 21.35 -04 39 32.7 19.4 R 711 – McDonald Observatory, Fort Davis MPS 63647
2002 09 18.34229 00 17 16.50 -04 39 39.1 19.5 R 644 – Palomar Mountain/NEAT MPS 81494
2002 09 18.35567 00 17 15.11 -04 39 40.7 19.3 R 644 – Palomar Mountain/NEAT MPS 81494
2002 09 19.28184 00 15 39.65 -04 41 55.3 20.4   644 – Palomar Mountain/NEAT MPS 63647
2002 09 19.29411 00 15 38.29 -04 41 56.9 19.9   644 – Palomar Mountain/NEAT MPS 63647
2002 09 19.32280 00 15 35.31 -04 42 01.8 20.4   644 – Palomar Mountain/NEAT MPS 63647
2002 09 24.30062 00 07 08.97 -04 52 43.8 19.3 R 649 – Powell Observatory, Louisburg MPS 63647
2002 09 24.33331 00 07 05.62 -04 52 48.0 18.5 R 649 – Powell Observatory, Louisburg MPS 63647
2002 09 24.36880 00 07 02.03 -04 52 52.1 19.2 R 649 – Powell Observatory, Louisburg MPS 63647
2002 09 29.91299 23 58 06.93 -05 01 35.7   246 – Klet Observatory-KLENOT MPS 63647
2002 09 29.91425 23 58 06.79 -05 01 35.3   246 – Klet Observatory-KLENOT MPS 63647
2002 09 29.91543 23 58 06.75 -05 01 35.1   246 – Klet Observatory-KLENOT MPS 63647
2002 09 29.91684 23 58 06.62 -05 01 35.6   246 – Klet Observatory-KLENOT MPS 63647
2002 09 29.91824 23 58 06.49 -05 01 36.5   246 – Klet Observatory-KLENOT MPS 63647
2002 09 29.91953 23 58 06.40 -05 01 36.2   246 – Klet Observatory-KLENOT MPS 63647
2002 09 29.92079 23 58 06.25 -05 01 36.7   246 – Klet Observatory-KLENOT MPS 63647
2002 09 29.92414 23 58 05.91 -05 01 37.0   246 – Klet Observatory-KLENOT MPS 63647
2002 10 01.89844 23 55 05.71 -05 03 46.0   246 – Klet Observatory-KLENOT MPS 63647
2002 10 01.89961 23 55 05.59 -05 03 46.1   246 – Klet Observatory-KLENOT MPS 63647
2002 10 01.90088 23 55 05.51 -05 03 46.1   246 – Klet Observatory-KLENOT MPS 63647
2002 10 01.90252 23 55 05.34 -05 03 47.0   246 – Klet Observatory-KLENOT MPS 63647
2002 10 08.90122 23 45 22.71 -05 06 56.6   246 – Klet Observatory-KLENOT MPS 63647
2002 10 08.90501 23 45 22.36 -05 06 56.6   246 – Klet Observatory-KLENOT MPS 63647
2002 10 29.16442 23 27 25.42 -04 34 59.4   696 – Whipple Observatory, Mt. Hopkins MPS 65954
2002 10 29.17366 23 27 25.20 -04 34 58.6   696 – Whipple Observatory, Mt. Hopkins MPS 65954
2002 12 05.12076 23 30 26.66 -01 30 13.8 22.2 V 291 – LPL/Spacewatch II MPS 67990
2002 12 05.12855 23 30 26.94 -01 30 08.8 22.2 V 291 – LPL/Spacewatch II MPS 67990
2002 12 05.13580 23 30 27.21 -01 30 06.0 22.6 V 291 – LPL/Spacewatch II MPS 67990
2003 12 18.77677 04 32 23.22 +44 01 48.0 22 R 540 – Linz MPS 94677
2003 12 20.76003 04 28 43.39 +43 55 07.6   540 – Linz MPS 94677
2003 12 20.77513 04 28 41.51 +43 55 04.5 22 R 540 – Linz MPS 94677
2005 08 31.42036 02 59 44.45 +22 27 58.9   291 – LPL/Spacewatch II MPS 140167
2005 08 31.43688 02 59 44.40 +22 28 04.5   291 – LPL/Spacewatch II MPS 140167
2005 08 31.45054 02 59 44.34 +22 28 09.1   291 – LPL/Spacewatch II MPS 140167
2006 11 20.47058 10 30 01.47 +27 29 41.9   696 – Whipple Observatory, Mt. Hopkins MPS 190392
2006 11 20.49653 10 30 04.86 +27 29 32.5   696 – Whipple Observatory, Mt. Hopkins MPS 190392
2006 11 20.50008 10 30 05.30 +27 29 31.2 22.1 V 291 – LPL/Spacewatch II MPS 188525
2006 11 20.50607 10 30 06.10 +27 29 28.4 22.2 V 291 – LPL/Spacewatch II MPS 188525
2006 11 20.51200 10 30 06.85 +27 29 26.7 21.8 V 291 – LPL/Spacewatch II MPS 188525
2007 01 13.13372 12 36 44.16 +20 30 01.4 19.3 V A56 – Parma MPS 196318
2007 01 13.13806 12 36 44.82 +20 29 58.8 19.6 V A56 – Parma MPS 196318
2007 01 13.14239 12 36 45.56 +20 29 56.0 19.5 V A56 – Parma MPS 196318
2007 01 13.14581 12 36 46.08 +20 29 53.0 19.8 V A56 – Parma MPS 196318
2007 02 13.41727 14 16 37.19 +10 11 40.4 18.7   704 – Lincoln Laboratory ETS, New Mexico MPS 199443
2007 02 13.42935 14 16 40.03 +10 11 16.8 18.5   704 – Lincoln Laboratory ETS, New Mexico MPS 199443
2007 02 13.44131 14 16 42.82 +10 10 52.5 18.3   704 – Lincoln Laboratory ETS, New Mexico MPS 199443
2007 02 16.43919 14 29 18.19 +08 22 06.1 19.1 R H51 – Greiner Research Observatory, Verona MPS 199443
2007 02 16.45301 14 29 21.61 +08 21 33.9 19.0 R H51 – Greiner Research Observatory, Verona MPS 199443
2007 02 16.46580 14 29 25.02 +08 21 03.9 20.2 R H51 – Greiner Research Observatory, Verona MPS 199443
2007 02 17.48271 14 33 53.24 +07 40 55.8 17.6 V 703 – Catalina Sky Survey MPS 200322
2007 02 17.48919 14 33 55.00 +07 40 43.2 18.4 V 703 – Catalina Sky Survey MPS 200322
2007 02 17.49572 14 33 56.70 +07 40 27.4 18.6 V 703 – Catalina Sky Survey MPS 200322
2007 02 17.50223 14 33 58.39 +07 40 11.6 18.6 V 703 – Catalina Sky Survey MPS 200322
2007 02 24.41739 15 07 29.99 +02 16 31.9 18.3   704 – Lincoln Laboratory ETS, New Mexico MPS 201472
2007 02 24.42923 15 07 33.68 +02 15 53.6 18.7   704 – Lincoln Laboratory ETS, New Mexico MPS 201472
2007 02 24.44111 15 07 37.34 +02 15 15.0 18.3   704 – Lincoln Laboratory ETS, New Mexico MPS 201472
2007 02 24.45310 15 07 41.03 +02 14 36.4 18.5   704 – Lincoln Laboratory ETS, New Mexico MPS 201472
2007 02 24.46503 15 07 44.70 +02 13 58.3 18.2   704 – Lincoln Laboratory ETS, New Mexico MPS 201472
2007 02 25.38751 15 12 42.00 +01 23 26.3 18.8   704 – Lincoln Laboratory ETS, New Mexico MPS 201472
2007 02 25.40566 15 12 47.78 +01 22 26.5 19.1   704 – Lincoln Laboratory ETS, New Mexico MPS 201472
2007 02 25.41754 15 12 51.61 +01 21 46.9 19.0   704 – Lincoln Laboratory ETS, New Mexico MPS 201472
2007 02 25.42909 15 12 55.24 +01 21 07.9 19.0   704 – Lincoln Laboratory ETS, New Mexico MPS 201472
2007 02 25.44066 15 12 58.92 +01 20 29.2 18.9   704 – Lincoln Laboratory ETS, New Mexico MPS 201472
2007 02 25.48168 15 13 12.24 +01 18 11.7   670 – Camarillo MPS 201472
2007 02 25.48569 15 13 13.48 +01 17 57.4   670 – Camarillo MPS 201472
2007 02 25.53883 15 13 30.19 +01 14 59.2   670 – Camarillo MPS 201472
2007 02 25.57110 15 13 40.56 +01 13 10.8   670 – Camarillo MPS 201472
2007 07 19.72848 00 37 00.01 -25 03 07.2 19.9 V E12 – Siding Spring Survey MPS 212238
2007 07 19.73310 00 36 59.79 -25 03 07.8 19.6 V E12 – Siding Spring Survey MPS 212238
2007 07 19.74242 00 36 59.32 -25 03 09.2 19.4 V E12 – Siding Spring Survey MPS 212238
2007 07 19.74723 00 36 59.07 -25 03 09.5 19.3 V E12 – Siding Spring Survey MPS 212238
2007 09 11.56725 22 54 09.28 -23 53 30.6 18.9 V E12 – Siding Spring Survey MPS 215907
2007 09 11.57388 22 54 08.56 -23 53 26.8 19.1 V E12 – Siding Spring Survey MPS 215907
2007 09 11.58051 22 54 07.74 -23 53 23.1 19.0 V E12 – Siding Spring Survey MPS 215907
2007 09 11.58708 22 54 07.02 -23 53 18.6 19.1 V E12 – Siding Spring Survey MPS 215907
2010 10 12.47559 01 50 27.95 +18 21 23.7 21.5 w F51 – Pan-STARRS 1, Haleakala MPS 353313
2010 10 12.49158 01 50 26.56 +18 21 21.0 21.5 w F51 – Pan-STARRS 1, Haleakala MPS 353313
2010 10 12.50714 01 50 25.22 +18 21 18.4 21.5 w F51 – Pan-STARRS 1, Haleakala MPS 353313
